Location: Caltech
(34.1382°N, 118.1253°W)
Time: 01:48:22
(UTC-07:00)

Iridium 21 - Visible Passes

Search period start: 24 July 2016 00:00
Search period end: 03 August 2016 00:00
Orbit: 776 x 779 km, 86.4° (Epoch: 23 July)

Date Brightness Start Highest point End Pass type
(mag) Time Alt. Az. Time Alt. Az. Time Alt. Az.
24 Jul 5.7 04:43:37 10° S 04:48:49 77° E 04:54:02 10° N visible
25 Jul 6.8 04:10:36 10° SSE 04:15:24 39° E 04:20:14 10° NNE visible
26 Jul 7.8 03:38:21 10° SE 03:42:06 21° E 03:45:53 10° NE visible
26 Jul 6.2 05:17:45 10° SSW 05:22:30 36° W 05:27:18 10° NNW visible
27 Jul 8.5 03:08:37 10° E 03:08:56 10° ENE 03:09:16 10° ENE visible
27 Jul 5.5 04:43:47 10° S 04:48:55 71° W 04:54:08 10° N visible
28 Jul 6.0 04:10:55 13° SSE 04:15:26 59° E 04:20:34 10° N visible
29 Jul 7.2 03:38:00 12° SE 03:42:05 30° E 03:46:35 10° NNE visible
29 Jul 6.7 05:18:32 10° SW 05:22:44 24° W 05:26:57 10° NNW visible
30 Jul 8.1 03:05:48 10° ESE 03:08:50 16° E 03:11:52 10° NE visible
30 Jul 5.8 04:45:34 19° SSW 04:49:04 47° W 04:54:05 10° N visible
31 Jul 5.5 04:12:37 27° S 04:15:31 88° E 04:20:45 10° N visible
01 Aug 6.4 03:39:38 26° SE 03:42:05 45° E 03:47:02 10° NNE visible
01 Aug 7.1 05:20:08 11° WSW 05:23:00 17° WNW 05:26:15 10° NW visible
02 Aug 7.5 03:06:37 18° ESE 03:08:46 23° E 03:12:50 10° NNE visible
02 Aug 6.3 04:47:07 23° WSW 04:49:15 31° W 04:53:52 10° NNW visible
